H1 CPF 2 NER 2023 3 2 9 061 01 glonass107 H2 0706501 9107 32393 2023 3 2 0 0 0 2023 3 5 23 45 0 900 1 1 0 0 0 1 H9 10 0 60005 0.00000 0 -10883935.803 2119074.432 22950552.984 10 0 60005 900.00000 0 -11803314.948 -540802.406 22585455.574 10 0 60005 1800.00000 0 -12883910.181 -3061023.114 21780793.187 10 0 60005 2700.00000 0 -14087238.118 -5384661.280 20552267.725 10 0 60005 3600.00000 0 -15366048.720 -7463422.227 18923837.344 10 0 60005 4500.00000 0 -16666295.407 -9259401.299 16927244.917 10 0 60005 5400.00000 0 -17929410.255 -10746403.996 14601394.053 10 0 60005 6300.00000 0 -19094788.182 -11910774.099 11991585.076 10 0 60005 7200.00000 0 -20102375.082 -12751696.655 9148626.259 10 0 60005 8100.00000 0 -20895250.464 -13280964.934 6127838.118 10 0 60005 9000.00000 0 -21422095.453 -13522223.118 2987970.680 10 0 60005 9900.00000 0 -21639441.848 -13509718.513 -209944.522 10 0 60005 10800.00000 0 -21513607.385 -13286617.816 -3403784.774 10 0 60005 11700.00000 0 -21022235.677 -12902960.102 -6531545.139 10 0 60005 12600.00000 0 -20155376.195 -12413334.365 -9532542.100 10 0 60005 13500.00000 0 -18916059.085 -11874380.684 -12348588.330 10 0 60005 14400.00000 0 -17320340.959 -11342221.121 -14925115.907 10 0 60005 15300.00000 0 -15396819.919 -10869928.974 -17212226.519 10 0 60005 16200.00000 0 -13185640.176 -10505142.933 -19165649.043 10 0 60005 17100.00000 0 -10737027.654 -10287926.204 -20747586.861 10 0 60005 18000.00000 0 -8109417.196 -10248960.104 -21927439.579 10 0 60005 18900.00000 0 -5367248.535 -10408147.423 -22682386.342 10 0 60005 19800.00000 0 -2578521.546 -10773683.682 -22997820.507 10 0 60005 20700.00000 0 187789.072 -11341634.971 -22867628.092 10 0 60005 21600.00000 0 2864353.987 -12096040.109 -22294305.179 10 0 60005 22500.00000 0 5388037.300 -13009533.217 -21288912.140 10 0 60005 23400.00000 0 7702268.396 -14044461.394 -19870865.345 10 0 60005 24300.00000 0 9759140.612 -15154451.617 -18067569.765 10 0 60005 25200.00000 0 11521150.865 -16286362.414 -15913898.645 10 0 60005 26100.00000 0 12962508.777 -17382539.594 -13451529.201 10 0 60005 27000.00000 0 14069961.513 -18383282.431 -10728146.020 10 0 60005 27900.00000 0 14843100.274 -19229417.467 -7796526.391 10 0 60005 28800.00000 0 15294135.877 -19864872.105 -4713524.401 10 0 60005 29700.00000 0 15447152.888 -20239139.631 -1538972.736 10 0 60005 30600.00000 0 15336873.690 -20309531.323 1665476.858 10 0 60005 31500.00000 0 15006984.580 -20043119.805 4837551.941 10 0 60005 32400.00000 0 14508094.618 -19418290.398 7915573.018 10 0 60005 33300.00000 0 13895413.714 -18425833.545 10839658.321 10 0 60005 34200.00000 0 13226248.540 -17069530.554 13552895.542 10 0 60005 35100.00000 0 12557422.737 -15366206.316 16002456.943 10 0 60005 36000.00000 0 11942731.278 -13345245.128 18140635.372 10 0 60005 36900.00000 0 11430537.416 -11047588.562 19925780.282 10 0 60005 37800.00000 0 11061614.632 -8524256.187 21323114.989 10 0 60005 38700.00000 0 10867325.532 -5834450.170 22305418.867 10 0 60005 39600.00000 0 10868215.286 -3043322.352 22853560.937 10 0 60005 40500.00000 0 11073079.520 -219496.588 22956874.342 10 0 60005 41400.00000 0 11478546.361 2567550.623 22613364.440 10 0 60005 42300.00000 0 12069190.486 5250142.212 21829746.497 10 0 60005 43200.00000 0 12818174.399 7764975.075 20621312.355 10 0 60005 44100.00000 0 13688389.807 10055510.135 19011628.817 10 0 60005 45000.00000 0 14634050.671 12074078.769 17032073.798 10 0 60005 45900.00000 0 15602670.391 13783618.494 14721219.474 10 0 60005 46800.00000 0 16537339.252 15158966.444 12124074.756 10 0 60005 47700.00000 0 17379205.481 16187657.806 9291202.222 10 0 60005 48600.00000 0 18070054.666 16870197.361 6277727.181 10 0 60005 49500.00000 0 18554878.172 17219794.512 3142258.726 10 0 60005 50400.00000 0 18784321.669 17261574.794 -54255.580 10 0 60005 51300.00000 0 18716910.172 17031302.934 -3249718.462 10 0 60005 52200.00000 0 18320955.513 16573673.045 -6382091.503 10 0 60005 53100.00000 0 17576065.840 15940239.539 -9390599.557 10 0 60005 54000.00000 0 16474193.589 15187077.244 -12216907.453 10 0 60005 54900.00000 0 15020177.964 14372270.166 -14806246.238 10 0 60005 55800.00000 0 13231759.208 13553335.163 -17108467.446 10 0 60005 56700.00000 0 11139063.976 12784688.985 -19079005.665 10 0 60005 57600.00000 0 8783583.069 12115264.880 -20679731.664 10 0 60005 58500.00000 0 6216683.687 11586378.325 -21879680.613 10 0 60005 59400.00000 0 3497717.349 11229930.680 -22655642.443 10 0 60005 60300.00000 0 691801.054 11067025.343 -22992603.970 10 0 60005 61200.00000 0 -2132637.514 11107053.726 -22884035.091 10 0 60005 62100.00000 0 -4906450.459 11347288.909 -22332014.058 10 0 60005 63000.00000 0 -7562390.072 11773003.841 -21347189.605 10 0 60005 63900.00000 0 -10037652.120 12358109.378 -19948580.444 10 0 60005 64800.00000 0 -12276238.065 13066285.918 -18163215.433 10 0 60005 65700.00000 0 -14231039.473 13852561.984 -16025620.437 10 0 60005 66600.00000 0 -15865558.946 14665274.418 -13577160.738 10 0 60005 67500.00000 0 -17155196.684 15448328.734 -10865250.506 10 0 60005 68400.00000 0 -18088049.421 16143665.366 -7942443.466 10 0 60005 69300.00000 0 -18665188.495 16693828.436 -4865421.439 10 0 60005 70200.00000 0 -18900405.408 17044528.908 -1693899.632 10 0 60005 71100.00000 0 -18819435.471 17147093.710 1510530.472 10 0 60005 72000.00000 0 -18458692.041 16960696.669 4685598.190 10 0 60005 72900.00000 0 -17863564.678 16454275.948 7769567.117 10 0 60005 73800.00000 0 -17086353.050 15608055.547 10702440.928 10 0 60005 74700.00000 0 -16183924.098 14414604.945 13427137.269 10 0 60005 75600.00000 0 -15215191.786 12879390.420 15890606.147 10 0 60005 76500.00000 0 -14238526.459 11020793.003 18044870.246 10 0 60005 77400.00000 0 -13309203.878 8869590.621 19847966.212 10 0 60005 78300.00000 0 -12477002.253 6467924.685 21264768.024 10 0 60005 79200.00000 0 -11784049.337 3867793.151 22267676.023 10 0 60005 80100.00000 0 -11263010.878 1129132.184 22837157.923 10 0 60005 81000.00000 0 -10935697.178 -1682434.175 22962131.148 10 0 60005 81900.00000 0 -10812146.647 -4498082.914 22640179.073 10 0 60005 82800.00000 0 -10890224.954 -7248416.066 21877596.973 10 0 60005 83700.00000 0 -11155756.433 -9866110.732 20689266.927 10 0 60005 84600.00000 0 -11583181.799 -12288484.961 19098364.227 10 0 60005 85500.00000 0 -12136713.907 -14459872.842 17135901.189 10 0 60006 0.00000 0 -12771942.040 -16333710.100 14840117.703 10 0 60006 900.00000 0 -13437816.654 -17874244.809 12255729.359 10 0 60006 1800.00000 0 -14078929.111 -19057800.261 9433051.350 10 0 60006 2700.00000 0 -14637990.454 -19873541.688 6427011.584 10 0 60006 3600.00000 0 -15058402.932 -20323713.647 3296075.741 10 0 60006 4500.00000 0 -15286815.284 -20423340.809 101104.709 10 0 60006 5400.00000 0 -15275553.254 -20199406.288 -3095832.587 10 0 60006 6300.00000 0 -14984822.314 -19689543.822 -6232667.322 10 0 60006 7200.00000 0 -14384589.389 -18940300.441 -9248535.933 10 0 60006 8100.00000 0 -13456064.162 -18005044.098 -12084958.696 10 0 60006 9000.00000 0 -12192717.521 -16941605.356 -14686968.931 10 0 60006 9900.00000 0 -10600794.299 -15809752.961 -17004171.243 10 0 60006 10800.00000 0 -8699298.668 -14668609.598 -18991708.973 10 0 60006 11700.00000 0 -6519452.464 -13574116.159 -20611123.016 10 0 60006 12600.00000 0 -4103648.572 -12576650.330 -21831086.436 10 0 60006 13500.00000 0 -1503942.191 -11718898.509 -22628001.792 10 0 60006 14400.00000 0 1219858.353 -11034069.196 -22986450.676 10 0 60006 15300.00000 0 4002423.213 -10544521.681 -22899487.624 10 0 60006 16200.00000 0 6775363.989 -10260866.577 -22368773.307 10 0 60006 17100.00000 0 9469827.581 -10181575.206 -21404544.577 10 0 60006 18000.00000 0 12019114.973 -10293113.896 -20025421.808 10 0 60006 18900.00000 0 14361217.888 -10570597.602 -18258056.639 10 0 60006 19800.00000 0 16441169.377 -10978935.745 -16136626.046 10 0 60006 20700.00000 0 18213111.658 -11474422.760 -13702181.461 10 0 60006 21600.00000 0 19641995.904 -12006707.164 -11001864.316 10 0 60006 22500.00000 0 20704843.510 -12521056.936 -8088002.057 10 0 60006 23400.00000 0 21391516.237 -12960826.252 -5017101.178 10 0 60006 24300.00000 0 21704962.920 -13270019.735 -1848756.070 10 0 60006 25200.00000 0 21660932.121 -13395845.803 1355505.572 10 0 60006 26100.00000 0 21287162.511 -13291150.675 4533418.387 10 0 60006 27000.00000 0 20622084.820 -12916629.180 7623192.560 10 0 60006 27900.00000 0 19713089.855 -12242717.612 10564720.508 10 0 60006 28800.00000 0 18614435.673 -11251087.023 13300752.847 10 0 60006 29700.00000 0 17384882.340 -9935672.118 15778019.964 10 0 60006 30600.00000 0 16085154.405 -8303190.464 17948276.604 10 0 60006 31500.00000 0 14775338.572 -6373128.322 19769248.397 10 0 60006 32400.00000 0 13512326.807 -4177191.960 21205461.330 10 0 60006 33300.00000 0 12347413.076 -1758245.982 22228937.622 10 0 60006 34200.00000 0 11324145.359 831218.119 22819744.155 10 0 60006 35100.00000 0 10476523.588 3531020.069 22966382.698 10 0 60006 36000.00000 0 9827619.361 6275555.359 22666014.291 10 0 60006 36900.00000 0 9388675.349 8996292.186 21924513.499 10 0 60006 37800.00000 0 9158721.822 11624396.967 20756351.559 10 0 60006 38700.00000 0 9124725.827 14093379.228 19184310.854 10 0 60006 39600.00000 0 9262265.865 16341645.737 17239036.435 10 0 60006 40500.00000 0 9536702.687 18314857.660 14958433.545 10 0 60006 41400.00000 0 9904795.727 19967992.762 12386923.150 10 0 60006 42300.00000 0 10316695.875 21267027.094 9574570.364 10 0 60006 43200.00000 0 10718229.290 22190166.706 6576103.208 10 0 60006 44100.00000 0 11053374.744 22728578.932 3449841.350 10 0 60006 45000.00000 0 11266828.848 22886593.893 256556.316 10 0 60006 45900.00000 0 11306549.947 22681369.319 -2941714.016 10 0 60006 46800.00000 0 11126172.593 22142034.308 -6082873.057 10 0 60006 47700.00000 0 10687190.183 21308349.570 -9105971.332 10 0 60006 48600.00000 0 9960813.404 20228941.832 -11952386.877 10 0 60006 49500.00000 0 8929425.985 18959187.727 -14566957.361 10 0 60006 50400.00000 0 7587576.386 17558836.795 -16899042.276 10 0 60006 51300.00000 0 5942463.611 16089473.722 -18903495.269 10 0 60006 52200.00000 0 4013896.447 14611926.143 -20541528.682 10 0 60006 53100.00000 0 1833727.378 13183726.113 -21781454.567 10 0 60006 54000.00000 0 -555215.983 11856730.695 -22599288.976 10 0 60006 54900.00000 0 -3100658.441 10675000.076 -22979208.915 10 0 60006 55800.00000 0 -5742801.496 9673020.769 -22913853.939 10 0 60006 56700.00000 0 -8416565.911 8874346.972 -22404467.193 10 0 60006 57600.00000 0 -11054061.123 8290715.873 -21460873.368 10 0 60006 58500.00000 0 -13587180.689 7921673.106 -20101293.830 10 0 60006 59400.00000 0 -15950217.628 7754723.601 -18352001.956 10 0 60006 60300.00000 0 -18082392.456 7766001.341 -16246824.459 10 0 60006 61200.00000 0 -19930189.905 7921430.095 -13826497.260 10 0 60006 62100.00000 0 -21449407.835 8178326.699 -11137887.196 10 0 60006 63000.00000 0 -22606833.311 8487379.877 -8233093.442 10 0 60006 63900.00000 0 -23381475.889 8794921.608 -5168445.103 10 0 60006 64800.00000 0 -23765306.283 9045395.426 -2003413.643 10 0 60006 65700.00000 0 -23763469.059 9183917.352 1200539.163 10 0 60006 66600.00000 0 -23393959.878 9158820.775 4381155.457 10 0 60006 67500.00000 0 -22686780.407 8924076.872 7476594.231 10 0 60006 68400.00000 0 -21682606.008 8441487.028 10426638.918 10 0 60006 69300.00000 0 -20431022.099 7682553.052 13173875.397 10 0 60006 70200.00000 0 -18988403.391 6629944.482 15664816.732 10 0 60006 71100.00000 0 -17415525.469 5278499.151 17850951.961 10 0 60006 72000.00000 0 -15775009.563 3635712.957 19689697.798 10 0 60006 72900.00000 0 -14128708.429 1721696.424 21145234.144 10 0 60006 73800.00000 0 -12535143.661 -431401.837 22189206.744 10 0 60006 74700.00000 0 -11047102.513 -2780481.961 22801283.004 10 0 60006 75600.00000 0 -9709495.362 -5273045.655 22969550.057 10 0 60006 76500.00000 0 -8557563.771 -7849150.963 22690747.303 10 0 60006 77400.00000 0 -7615514.162 -10443687.916 21970328.938 10 0 60006 78300.00000 0 -6895633.919 -12988880.462 20822355.361 10 0 60006 79200.00000 0 -6397926.283 -15416910.538 19269215.716 10 0 60006 80100.00000 0 -6110278.360 -17662554.861 17341187.123 10 0 60006 81000.00000 0 -6009153.954 -19665724.528 15075839.409 10 0 60006 81900.00000 0 -6060780.692 -21373801.540 12517297.217 10 0 60006 82800.00000 0 -6222779.966 -22743674.877 9715374.205 10 0 60006 83700.00000 0 -6446169.516 -23743391.484 6724596.703 10 0 60006 84600.00000 0 -6677652.700 -24353353.757 3603136.341 10 0 60006 85500.00000 0 -6862096.495 -24567014.315 411673.069 10 0 60007 0.00000 0 -6945092.417 -24391040.101 -2787788.397 10 0 60007 900.00000 0 -6875491.294 -23844940.089 -5933126.853 10 0 60007 1800.00000 0 -6607804.048 -22960173.905 -8963309.366 10 0 60007 2700.00000 0 -6104366.847 -21778779.733 -11819574.607 10 0 60007 3600.00000 0 -5337178.905 -20351580.389 -14446567.553 10 0 60007 4500.00000 0 -4289335.410 -18736043.588 -16793405.552 10 0 60007 5400.00000 0 -2955995.169 -16993886.563 -18814655.443 10 0 60007 6300.00000 0 -1344842.119 -15188525.356 -20471203.686 10 0 60007 7200.00000 0 523979.024 -13382475.105 -21731003.697 10 0 60007 8100.00000 0 2618450.911 -11634809.210 -22569687.020 10 0 60007 9000.00000 0 4895771.915 -9998782.357 -22971027.625 10 0 60007 9900.00000 0 7303900.480 -8519715.347 -22927251.176 10 0 60007 10800.00000 0 9783492.689 -7233228.619 -22439183.935 10 0 60007 11700.00000 0 12270154.105 -6163896.849 -21516238.621 10 0 60007 12600.00000 0 14696913.966 -5324379.705 -20176237.372 10 0 60007 13500.00000 0 16996820.555 -4715064.187 -18445074.665 10 0 60007 14400.00000 0 19105551.329 -4324232.955 -16356225.877 10 0 60007 15300.00000 0 20963930.326 -4128751.330 -13950109.913 10 0 60007 16200.00000 0 22520248.869 -4095244.147 -11273317.038 10 0 60007 17100.00000 0 23732293.157 -4181713.132 -8377715.730 10 0 60007 18000.00000 0 24568994.101 -4339526.922 -5319454.854 10 0 60007 18900.00000 0 25011630.052 -4515699.964 -2157879.752 10 0 60007 19800.00000 0 25054531.505 -4655364.017 1045617.175 10 0 60007 20700.00000 0 24705257.454 -4704327.493 4228789.132 10 0 60007 21600.00000 0 23984235.267 -4611613.735 7329747.476 10 0 60007 22500.00000 0 22923878.499 -4331869.863 10288170.066 10 0 60007 23400.00000 0 21567219.211 -3827542.978 13046481.222 10 0 60007 24300.00000 0 19966111.974 -3070730.149 15550979.531 10 0 60007 25200.00000 0 18179084.911 -2044622.271 17752890.812 10 0 60007 26100.00000 0 16268928.239 -744479.036 19609324.959 10 0 60007 27000.00000 0 14300121.782 821907.865 21084117.484 10 0 60007 27900.00000 0 12336209.733 2634284.548 22148538.944 10 0 60007 28800.00000 0 10437233.115 4660536.314 22781858.145 10 0 60007 29700.00000 0 8657327.727 6857796.679 22971748.042 10 0 60007 30600.00000 0 7042588.235 9174018.656 22714526.411 10 0 60007 31500.00000 0 5629287.690 11549943.256 22015226.664 10 0 60007 32400.00000 0 4442526.539 13921383.399 20887497.518 10 0 60007 33300.00000 0 3495366.944 16221728.121 19353333.621 10 0 60007 34200.00000 0 2788487.631 18384562.469 17442642.529 10 0 60007 35100.00000 0 2310372.441 20346293.664 15192656.704 10 0 60007 36000.00000 0 2038023.077 22048673.746 12647202.213 10 0 60007 36900.00000 0 1938164.435 23441113.177 9855838.777 10 0 60007 37800.00000 0 1968890.026 24482688.786 6872888.353 10 0 60007 38700.00000 0 2081676.400 25143762.284 3756371.698 10 0 60007 39600.00000 0 2223680.009 25407142.098 566874.248 10 0 60007 40500.00000 0 2340218.095 25268740.566 -2633635.975 10 0 60007 41400.00000 0 2377327.648 24737699.929 -5783014.920 10 0 60007 42300.00000 0 2284293.444 23835982.893 -8820149.559 10 0 60007 43200.00000 0 2016037.760 22597446.048 -11686141.796 10 0 60007 44100.00000 0 1535270.585 21066436.002 -14325446.251 10 0 60007 45000.00000 0 814309.440 19295967.843 -16686940.174 10 0 60007 45900.00000 0 -163507.850 17345562.692 -18724905.337 10 0 60007 46800.00000 0 -1402876.992 15278834.876 -20399903.772 10 0 60007 47700.00000 0 -2896087.538 13160929.239 -21679531.410 10 0 60007 48600.00000 0 -4623108.564 11055914.829 -22539036.151 10 0 60007 49500.00000 0 -6552196.819 9024242.565 -22961789.483 10 0 60007 50400.00000 0 -8641002.971 7120371.550 -22939603.402 10 0 60007 51300.00000 0 -10838131.083 5390661.392 -22472887.130 10 0 60007 52200.00000 0 -13085087.906 3871616.887 -21570640.863 10 0 60007 53100.00000 0 -15318542.433 2588556.815 -20250286.528 10 0 60007 54000.00000 0 -17472803.310 1554761.222 -18537338.322 10 0 60007 54900.00000 0 -19482412.495 771131.855 -16464918.549 10 0 60007 55800.00000 0 -21284748.324 226379.379 -14073127.059 10 0 60007 56700.00000 0 -22822530.391 -102270.805 -11408275.318 10 0 60007 57600.00000 0 -24046122.149 -247883.902 -8521998.745 10 0 60007 58500.00000 0 -24915535.062 -252182.402 -5470263.551 10 0 60007 59400.00000 0 -25402050.047 -163542.906 -2312286.522 10 0 60007 60300.00000 0 -25489387.649 -34707.648 890611.732 10 0 60007 61200.00000 0 -25174376.901 79692.338 4076197.895 10 0 60007 62100.00000 0 -24467093.812 125697.181 7182538.080 10 0 60007 63000.00000 0 -23390462.665 52552.136 10149206.938 10 0 60007 63900.00000 0 -21979335.981 -184892.763 12918469.530 10 0 60007 64800.00000 0 -20279091.149 -624020.240 15436412.176 10 0 60007 65700.00000 0 -18343802.190 -1292613.486 17653999.508 10 0 60007 66600.00000 0 -16234063.186 -2207433.092 19528036.404 10 0 60007 67500.00000 0 -14014554.685 -3373264.956 21022015.497 10 0 60007 68400.00000 0 -11751455.157 -4782480.917 22106833.325 10 0 60007 69300.00000 0 -9509806.116 -6415132.120 22761360.897 10 0 60007 70200.00000 0 -7350941.323 -8239572.493 22972857.427 10 0 60007 71100.00000 0 -5330087.574 -10213587.283 22737219.169 10 0 60007 72000.00000 0 -3494237.261 -12285980.127 22059058.530 10 0 60007 72900.00000 0 -1880381.220 -14398552.765 20951612.043 10 0 60007 73800.00000 0 -514175.016 -16488394.823 19436479.103 10 0 60007 74700.00000 0 590906.495 -18490387.909 17543196.711 10 0 60007 75600.00000 0 1433892.263 -20339819.190 15308658.733 10 0 60007 76500.00000 0 2026103.826 -21974994.878 12776391.229 10 0 60007 77400.00000 0 2390420.406 -23339744.012 9995698.338 10 0 60007 78300.00000 0 2560053.096 -24385707.539 7020695.819 10 0 60007 79200.00000 0 2576881.664 -25074316.768 3909251.573 10 0 60007 80100.00000 0 2489425.898 -25378378.419 721854.411 10 0 60007 81000.00000 0 2350538.758 -25283200.184 -2479566.284 10 0 60007 81900.00000 0 2214920.145 -24787210.180 -5632846.522 10 0 60007 82800.00000 0 2136557.433 -23902045.056 -8676795.321 10 0 60007 83700.00000 0 2166201.636 -22652103.891 -11552380.307 10 0 60007 84600.00000 0 2348986.272 -21073587.390 -14203868.293 10 0 60007 85500.00000 0 2722289.567 -19213063.317 -16579898.959 10 0 60008 0.00000 0 3313930.079 -17125618.808 -18634471.287 10 0 60008 900.00000 0 4140771.989 -14872675.744 -20327825.515 10 0 60008 1800.00000 0 5207797.830 -12519562.970 -21627201.904 10 0 60008 2700.00000 0 6507688.752 -10132942.175 -22507466.387 10 0 60008 3600.00000 0 8020929.590 -7778196.364 -22951589.279 10 0 60008 4500.00000 0 9716435.297 -5516887.234 -22950969.808 10 0 60008 5400.00000 0 11552673.546 -3404385.865 -22505600.677 10 0 60008 6300.00000 0 13479237.972 -1487773.671 -21624069.689 10 0 60008 7200.00000 0 15438807.849 195900.544 -20323398.335 10 0 60008 8100.00000 0 17369414.111 1620936.274 -18628719.949 10 0 60008 9000.00000 0 19206918.677 2773816.030 -16572802.808 10 0 60008 9900.00000 0 20887604.940 3653525.080 -14195426.376 10 0 60008 10800.00000 0 22350772.259 4271343.448 -11542621.587 10 0 60008 11700.00000 0 23541226.592 4650119.201 -8665788.670 10 0 60008 12600.00000 0 24411563.216 4823053.699 -5620708.668 10 0 60008 13500.00000 0 24924145.597 4832049.989 -2466466.979 10 0 60008 14400.00000 0 25052696.757 4725694.044 735690.653 10 0 60008 15300.00000 0 24783435.325 4556954.250 3923547.596 10 0 60008 16200.00000 0 24115707.390 4380696.773 7035127.942 10 0 60008 17100.00000 0 23062086.323 4251122.503 10009906.287 10 0 60008 18000.00000 0 21647935.172 4219234.931 12789991.410 10 0 60008 18900.00000 0 19910448.959 4330447.206 15321260.108 10 0 60008 19800.00000 0 17897216.221 4622430.919 17554418.304 10 0 60008 20700.00000 0 15664359.599 5123298.993 19445968.039 10 0 60008 21600.00000 0 13274333.036 5850200.904 20959060.924 10 0 60008 22500.00000 0 10793467.682 6808390.992 22064221.014 10 0 60008 23400.00000 0 8289369.199 7990810.478 22739922.689 10 0 60008 24300.00000 0 5828275.261 9378202.012 22973012.207 10 0 60008 25200.00000 0 3472483.614 10939752.956 22758964.651 10 0 60008 26100.00000 0 1277957.990 12634241.187 22101971.325 10 0 60008 27000.00000 0 -707788.564 14411635.849 21014856.007 10 0 60008 27900.00000 0 -2447445.135 16215086.257 19518821.790 10 0 60008 28800.00000 0 -3915216.889 17983215.589 17643033.635 10 0 60008 29700.00000 0 -5097647.775 19652623.117 15424044.931 10 0 60008 30600.00000 0 -5993919.035 21160489.801 12905079.512 10 0 60008 31500.00000 0 -6615612.729 22447177.637 10135183.456 10 0 60008 32400.00000 0 -6985952.107 23458713.382 7168263.629 10 0 60008 33300.00000 0 -7138552.770 24149052.186 4062032.234 10 0 60008 34200.00000 0 -7115739.154 24482025.948 876878.512 10 0 60008 35100.00000 0 -6966499.180 24432894.700 -2325309.788 10 0 60008 36000.00000 0 -6744164.973 23989436.082 -5482351.712 10 0 60008 36900.00000 0 -6503918.933 23152527.647 -8532981.215 10 0 60008 37800.00000 0 -6300231.415 21936198.073 -11418034.393 10 0 60008 38700.00000 0 -6184338.838 20367145.731 -14081592.759 10 0 60008 39600.00000 0 -6201868.914 18483745.258 -16472060.677 10 0 60008 40500.00000 0 -6390713.116 16334584.052 -18543156.617 10 0 60008 41400.00000 0 -6779235.820 13976589.851 -20254799.925 10 0 60008 42300.00000 0 -7384895.233 11472827.293 -21573876.894 10 0 60008 43200.00000 0 -8213333.848 8890054.585 -22474872.473 10 0 60008 44100.00000 0 -9257976.653 6296140.991 -22940356.430 10 0 60008 45000.00000 0 -10500154.192 3757451.214 -22961315.502 10 0 60008 45900.00000 0 -11909745.980 1336303.840 -22537325.726 10 0 60008 46800.00000 0 -13446318.312 -911392.220 -21676561.951 10 0 60008 47700.00000 0 -15060710.116 -2938226.702 -20395644.232 10 0 60008 48600.00000 0 -16697001.998 -4707017.009 -18719323.601 10 0 60008 49500.00000 0 -18294787.604 -6192106.660 -16680012.495 10 0 60008 50400.00000 0 -19791653.685 -7380180.047 -14317167.856 10 0 60008 51300.00000 0 -21125766.197 -8270560.234 -11676537.696 10 0 60008 52200.00000 0 -22238454.902 -8874977.836 -8809284.518 10 0 60008 53100.00000 0 -23076688.425 -9216820.925 -5771001.559 10 0 60008 54000.00000 0 -23595335.788 -9329897.632 -2620640.158 10 0 60008 54900.00000 0 -23759118.845 -9256763.596 580631.485 10 0 60008 55800.00000 0 -23544172.560 -9046684.978 3770616.083 10 0 60008 56700.00000 0 -22939146.286 -8753323.295 6887298.344 10 0 60008 57600.00000 0 -21945798.258 -8432240.419 9870055.372 10 0 60008 58500.00000 0 -20579056.864 -8138329.947 12660842.138 10 0 60008 59400.00000 0 -18866544.707 -7923284.509 15205328.227 10 0 60008 60300.00000 0 -16847584.225 -7833207.201 17453962.934 10 0 60008 61200.00000 0 -14571725.624 -7906469.366 19362947.244 10 0 60008 62100.00000 0 -12096858.100 -8171906.457 20895093.172 10 0 60008 63000.00000 0 -9486982.908 -8647429.422 22020553.300 10 0 60008 63900.00000 0 -6809741.155 -9339111.335 22717405.982 10 0 60008 64800.00000 0 -4133799.432 -10240788.795 22972084.709 10 0 60008 65700.00000 0 -1526202.258 -11334195.747 22779643.202 10 0 60008 66600.00000 0 950198.312 -12589624.759 22143851.144 10 0 60008 67500.00000 0 3239129.011 -13967088.380 21077118.745 10 0 60008 68400.00000 0 5292998.578 -15417932.017 19600251.755 10 0 60008 69300.00000 0 7074630.774 -16886830.560 17742041.813 10 0 60008 70200.00000 0 8558555.847 -18314084.703 15538700.356 10 0 60008 71100.00000 0 9731807.759 -19638120.154 13033147.296 10 0 60008 72000.00000 0 10594195.357 -20798084.269 10274168.745 10 0 60008 72900.00000 0 11158037.921 -21736430.510 7315460.583 10 0 60008 73800.00000 0 11447378.173 -22401381.644 4214577.041 10 0 60008 74700.00000 0 11496707.817 -22749167.745 1031805.391 10 0 60008 75600.00000 0 11349261.265 -22745944.706 -2171010.730 10 0 60008 76500.00000 0 11054951.235 -22369312.563 -5331675.914 10 0 60008 77400.00000 0 10668034.837 -21609369.965 -8388851.553 10 0 60008 78300.00000 0 10244609.809 -20469260.734 -11283244.656 10 0 60008 79200.00000 0 9840047.355 -18965189.943 -13958753.819 10 0 60008 80100.00000 0 9506470.252 -17125909.122 -16363550.331 10 0 60008 81000.00000 0 9290382.617 -14991692.323 -18451074.075 10 0 60008 81900.00000 0 9230550.880 -12612845.797 -20180925.721 10 0 60008 82800.00000 0 9356224.772 -10047813.159 -21519638.978 10 0 60008 83700.00000 0 9685772.585 -7360954.338 -22441319.046 10 0 60008 84600.00000 0 10225787.698 -4620089.688 -22928136.026 10 0 60008 85500.00000 0 10970703.683 -1893910.091 -22970664.641 99